TB1BDL-10 Weather Reports


time (UTC)temp
F
wind
direction
speed
knots
gust
knots
rain 1hr
in
rain 24hr
in
rain mn
in
humidity
%
barometer
mb
20260906083300 76 200 7.0 7.0 0.00 0.00 0.00 73 1017.0
20260906082758 76 200 7.0 7.0 0.00 0.00 0.00 73 1017.0
20260906082256 76 200 7.0 7.0 0.00 0.00 0.00 73 1017.0
20260906081754 78 200 7.0 7.0 0.00 0.00 0.00 95 1017.0
20260906081252 78 200 7.0 7.0 0.00 0.00 0.00 95 1017.0
20260906080750 78 220 7.0 7.0 0.00 0.00 0.00 94 1017.0
20260906080248 78 220 7.0 7.0 0.00 0.00 0.00 94 1017.0
20260906075747 78 220 7.0 7.0 0.00 0.00 0.00 94 1017.0
20260906075245 78 220 7.0 7.0 0.00 0.00 0.00 94 1017.0
20260906074742 77 220 7.0 7.0 0.00 0.00 0.00 94 1017.0
20260906074239 77 220 7.0 7.0 0.00 0.00 0.00 94 1017.0
20260906073738 77 210 7.0 7.0 0.00 0.00 0.00 95 1017.0
20260906073237 77 210 7.0 7.0 0.00 0.00 0.00 95 1017.0
20260906072735 76 210 7.0 7.0 0.00 0.00 0.00 73 1017.0
20260906072233 76 210 7.0 7.0 0.00 0.00 0.00 73 1017.0
20260906071732 76 210 7.0 7.0 0.00 0.00 0.00 73 1017.0
20260906071230 76 210 7.0 7.0 0.00 0.00 0.00 73 1017.0
20260906070727 76 220 4.3 4.3 0.00 0.00 0.00 69 1017.0
20260906070226 76 220 4.3 4.3 0.00 0.00 0.00 69 1017.0
20260906065724 76 220 4.3 4.3 0.00 0.00 0.00 69 1017.0
20260906065221 76 220 4.3 4.3 0.00 0.00 0.00 69 1017.0
20260906064720 76 220 4.3 4.3 0.00 0.00 0.00 69 1017.0
20260906064218 76 220 4.3 4.3 0.00 0.00 0.00 69 1017.0
20260906063718 74 200 3.5 3.5 0.00 0.00 0.00 73 1016.0
20260906063215 74 200 3.5 3.5 0.00 0.00 0.00 73 1016.0
20260906062713 74 200 3.5 3.5 0.00 0.00 0.00 73 1016.0
20260906062211 74 200 3.5 3.5 0.00 0.00 0.00 73 1016.0
20260906061709 74 200 3.5 3.5 0.00 0.00 0.00 73 1016.0
20260906061208 74 200 3.5 3.5 0.00 0.00 0.00 73 1016.0
20260906060706 74 0 1.7 1.7 0.00 0.00 0.00 69 1017.0
20260906060204 74 0 1.7 1.7 0.00 0.00 0.00 69 1017.0
20260906055703 74 0 1.7 1.7 0.00 0.00 0.00 69 1017.0
20260906055201 74 0 1.7 1.7 0.00 0.00 0.00 69 1017.0
20260906054700 74 0 1.7 1.7 0.00 0.00 0.00 69 1017.0
20260906054159 75 0 1.7 1.7 0.00 0.00 0.00 94 1017.0
20260906053657 75 0 1.7 1.7 0.00 0.00 0.00 94 1017.0
20260906053155 72 0 0.0 0.0 0.00 0.00 0.00 69 1016.0
20260906052653 72 0 0.0 0.0 0.00 0.00 0.00 69 1016.0
20260906052151 72 0 0.0 0.0 0.00 0.00 0.00 72 1016.0
20260906051647 72 0 0.0 0.0 0.00 0.00 0.00 72 1016.0
20260906051145 71 0 0.9 0.9 0.00 0.00 0.00 83 1016.0
20260906050644 71 0 0.9 0.9 0.00 0.00 0.00 83 1016.0
20260906050142 69 0 0.9 0.9 0.00 0.00 0.00 94 1016.0
20260906045641 69 0 0.9 0.9 0.00 0.00 0.00 94 1016.0
20260906045139 68 0 0.9 0.9 0.00 0.00 0.00 94 1016.0
20260906044637 68 0 0.9 0.9 0.00 0.00 0.00 94 1016.0
20260906044135 68 330 1.7 1.7 0.00 0.00 0.00 95 1016.0
20260906043632 68 330 1.7 1.7 0.00 0.00 0.00 95 1016.0
20260906043131 68 330 1.7 1.7 0.00 0.00 0.00 95 1016.0
20260906042628 68 330 1.7 1.7 0.00 0.00 0.00 95 1016.0
20260906042127 68 330 1.7 1.7 0.00 0.00 0.00 95 1016.0
20260906041625 68 330 1.7 1.7 0.00 0.00 0.00 95 1016.0
20260906041122 68 0 0.0 0.0 0.00 0.00 0.00 95 1016.0
20260906040621 68 0 0.0 0.0 0.00 0.00 0.00 95 1016.0
20260906040120 68 0 0.0 0.0 0.00 0.00 0.00 95 1016.0
20260906035618 68 0 0.0 0.0 0.00 0.00 0.00 95 1016.0
20260906035116 68 0 0.0 0.0 0.00 0.00 0.00 95 1016.0
20260906034614 68 0 0.0 0.0 0.00 0.00 0.00 95 1016.0
20260906034112 68 0 0.0 0.0 0.00 0.00 0.00 95 1016.0
20260906033611 68 350 0.9 0.9 0.00 0.00 0.00 95 1016.0
20260906033109 68 350 0.9 0.9 0.00 0.00 0.00 95 1016.0
20260906032608 67 350 0.9 0.9 0.00 0.00 0.00 95 1015.0
20260906032104 67 350 0.9 0.9 0.00 0.00 0.00 95 1015.0
20260906031602 67 350 0.9 0.9 0.00 0.00 0.00 95 1015.0
20260906031059 67 350 0.9 0.9 0.00 0.00 0.00 95 1015.0
20260906030558 67 0 0.0 0.0 0.00 0.00 0.00 95 1016.0
20260906030057 67 0 0.0 0.0 0.00 0.00 0.00 95 1016.0
20260906025555 68 0 0.0 0.0 0.00 0.00 0.00 95 1016.0
20260906025053 68 0 0.0 0.0 0.00 0.00 0.00 95 1016.0
20260906024552 68 300 1.7 1.7 0.00 0.00 0.00 95 1016.0
20260906024051 68 300 1.7 1.7 0.00 0.00 0.00 95 1016.0
20260906023549 68 300 1.7 1.7 0.00 0.00 0.00 95 1016.0
20260906023047 68 300 1.7 1.7 0.00 0.00 0.00 95 1015.0
20260906022543 68 300 1.7 1.7 0.00 0.00 0.00 95 1015.0
20260906022038 68 300 1.7 1.7 0.00 0.00 0.00 95 1015.0
20260906021537 68 300 1.7 1.7 0.00 0.00 0.00 95 1015.0
20260906021034 68 300 1.7 1.7 0.00 0.00 0.00 95 1015.0
20260906020532 68 330 3.5 3.5 0.00 0.00 0.00 96 1015.0
20260906020030 68 330 3.5 3.5 0.00 0.00 0.00 96 1015.0
20260906015527 68 330 3.5 3.5 0.00 0.00 0.00 96 1015.0
20260906015025 68 330 3.5 3.5 0.00 0.00 0.00 96 1015.0
20260906014523 68 330 3.5 3.5 0.00 0.00 0.00 96 1015.0
20260906014021 69 0 0.0 0.0 0.00 0.00 0.00 95 1016.0
20260906013519 69 0 0.0 0.0 0.00 0.00 0.00 95 1016.0
20260906013016 68 0 0.0 0.0 0.00 0.00 0.00 95 1015.0
20260906012514 68 0 0.0 0.0 0.00 0.00 0.00 95 1015.0
20260906012011 68 0 0.0 0.0 0.00 0.00 0.00 95 1015.0
20260906011510 68 0 0.0 0.0 0.00 0.00 0.00 95 1015.0
20260906011006 68 360 1.7 1.7 0.00 0.00 0.00 95 1016.0
20260906010504 68 360 1.7 1.7 0.00 0.00 0.00 95 1016.0
20260906010000 68 360 1.7 1.7 0.00 0.00 0.00 95 1016.0
20260906005457 68 360 1.7 1.7 0.00 0.00 0.00 95 1016.0
20260906004956 69 360 1.7 1.7 0.00 0.00 0.00 95 1016.0
20260906004454 69 360 1.7 1.7 0.00 0.00 0.00 95 1016.0
20260906003952 70 0 1.7 1.7 0.00 0.00 0.00 93 1016.0
20260906003451 70 0 1.7 1.7 0.00 0.00 0.00 93 1016.0
20260906002949 70 0 1.7 1.7 0.00 0.00 0.00 93 1015.0
20260906002447 70 0 1.7 1.7 0.00 0.00 0.00 93 1015.0
20260906001945 70 0 1.7 1.7 0.00 0.00 0.00 93 1015.0
20260906001444 70 0 1.7 1.7 0.00 0.00 0.00 93 1015.0
20260906000942 70 0 1.7 1.7 0.00 0.00 0.00 94 1016.0
20260906000441 70 0 1.7 1.7 0.00 0.00 0.00 94 1016.0
20260905235940 70 0 1.7 1.7 0.00 0.00 0.00 94 1016.0
20260905235438 70 0 1.7 1.7 0.00 0.00 0.00 94 1016.0
20260905234934 70 0 1.7 1.7 0.00 0.00 0.00 94 1016.0
20260905234433 70 0 1.7 1.7 0.00 0.00 0.00 94 1016.0
20260905233926 70 0 1.7 1.7 0.00 0.00 0.00 94 1016.0
20260905233425 70 0 0.9 0.9 0.00 0.00 0.00 93 1016.0
20260905232923 70 0 0.9 0.9 0.00 0.00 0.00 93 1016.0
20260905232422 70 0 0.9 0.9 0.00 0.00 0.00 93 1016.0
20260905231919 70 0 0.9 0.9 0.00 0.00 0.00 93 1016.0
20260905231417 70 0 0.9 0.9 0.00 0.00 0.00 93 1016.0
20260905230916 70 0 0.9 0.9 0.00 0.00 0.00 93 1016.0
20260905230414 71 50 3.5 3.5 0.00 0.00 0.00 93 1016.0
20260905225913 71 50 3.5 3.5 0.00 0.00 0.00 93 1016.0
20260905225411 71 50 3.5 3.5 0.00 0.00 0.00 93 1016.0
20260905224910 71 50 3.5 3.5 0.00 0.00 0.00 93 1016.0
20260905224408 71 50 3.5 3.5 0.00 0.00 0.00 93 1016.0
20260905223905 71 50 3.5 3.5 0.00 0.00 0.00 93 1016.0
20260905223403 71 50 3.5 3.5 0.00 0.00 0.00 91 1016.0
20260905222902 71 50 3.5 3.5 0.00 0.00 0.00 91 1016.0
20260905222401 71 50 3.5 3.5 0.00 0.00 0.00 91 1016.0
20260905221900 71 50 3.5 3.5 0.00 0.00 0.00 91 1016.0
20260905221359 71 50 3.5 3.5 0.00 0.00 0.00 91 1016.0
20260905220857 72 40 5.2 5.2 0.00 0.00 0.00 92 1016.0
20260905220355 72 40 5.2 5.2 0.00 0.00 0.00 92 1016.0
20260905215851 72 40 5.2 5.2 0.00 0.00 0.00 92 1016.0
20260905215348 72 40 5.2 5.2 0.00 0.00 0.00 92 1016.0
20260905214844 72 40 5.2 5.2 0.00 0.00 0.00 92 1016.0
20260905214342 72 40 5.2 5.2 0.00 0.00 0.00 92 1016.0
20260905213839 72 80 3.5 3.5 0.00 0.00 0.00 92 1016.0
20260905213338 72 80 3.5 3.5 0.00 0.00 0.00 92 1016.0
20260905212835 72 80 3.5 3.5 0.00 0.00 0.00 92 1016.0
20260905212333 72 80 3.5 3.5 0.00 0.00 0.00 92 1016.0
20260905211830 72 80 3.5 3.5 0.00 0.00 0.00 92 1016.0
20260905211328 72 80 3.5 3.5 0.00 0.00 0.00 92 1016.0
20260905210825 72 50 8.7 8.7 0.00 0.00 0.00 90 1016.0
20260905210324 72 50 8.7 8.7 0.00 0.00 0.00 90 1016.0
20260905205821 72 50 8.7 8.7 0.00 0.00 0.00 90 1016.0
20260905205320 72 50 8.7 8.7 0.00 0.00 0.00 90 1016.0
20260905204819 72 50 8.7 8.7 0.00 0.00 0.00 90 1016.0
20260905204317 72 50 8.7 8.7 0.00 0.00 0.00 90 1016.0
20260905203815 72 50 8.7 8.7 0.00 0.00 0.00 90 1016.0
20260905203313 73 60 8.7 8.7 0.00 0.00 0.00 90 1016.0
20260905202812 73 60 8.7 8.7 0.00 0.00 0.00 90 1016.0
20260905202310 73 60 8.7 8.7 0.00 0.00 0.00 90 1016.0
20260905201808 73 60 8.7 8.7 0.00 0.00 0.00 90 1016.0
20260905201304 73 60 8.7 8.7 0.00 0.00 0.00 89 1016.0
20260905200803 73 60 8.7 8.7 0.00 0.00 0.00 89 1016.0
20260905200300 73 60 8.7 8.7 0.00 0.00 0.00 89 1016.0
20260905195758 73 60 8.7 8.7 0.00 0.00 0.00 89 1016.0
20260905195256 73 60 8.7 8.7 0.00 0.00 0.00 89 1016.0
20260905194754 73 60 8.7 8.7 0.00 0.00 0.00 89 1016.0
20260905194252 73 60 8.7 8.7 0.00 0.00 0.00 89 1016.0
20260905193750 74 50 7.8 7.8 0.00 0.00 0.00 89 1016.0
20260905193249 74 50 7.8 7.8 0.00 0.00 0.00 89 1016.0
20260905192748 74 50 7.8 7.8 0.00 0.00 0.00 89 1016.0
20260905192245 74 50 7.8 7.8 0.00 0.00 0.00 89 1016.0
20260905191743 74 50 7.8 7.8 0.00 0.00 0.00 89 1016.0
20260905191242 74 50 7.8 7.8 0.00 0.00 0.00 89 1016.0
20260905190740 74 50 7.8 7.8 0.00 0.00 0.00 89 1016.0
20260905190238 74 50 8.7 8.7 0.00 0.00 0.00 90 1016.0
20260905185736 74 50 8.7 8.7 0.00 0.00 0.00 90 1016.0
20260905185229 75 50 8.7 8.7 0.00 0.00 0.00 90 1016.0
20260905184726 75 50 8.7 8.7 0.00 0.00 0.00 90 1016.0
20260905184225 75 50 8.7 8.7 0.00 0.00 0.00 90 1016.0
20260905183725 74 50 8.7 8.7 0.00 0.00 0.00 90 1016.0
20260905183221 74 50 8.7 8.7 0.00 0.00 0.00 90 1016.0
20260905182719 74 50 8.7 8.7 0.00 0.00 0.00 90 1016.0
20260905182218 74 50 8.7 8.7 0.00 0.00 0.00 90 1016.0
20260905181716 76 50 8.7 8.7 0.00 0.00 0.00 92 1016.0
20260905181216 76 50 8.7 8.7 0.00 0.00 0.00 92 1016.0
20260905180714 76 50 8.7 8.7 0.00 0.00 0.00 92 1016.0
20260905180209 76 40 10.4 10.4 0.00 0.00 0.00 87 1016.0
20260905175707 76 40 10.4 10.4 0.00 0.00 0.00 87 1016.0
20260905175206 76 40 10.4 10.4 0.00 0.00 0.00 90 1016.0
20260905174704 76 40 10.4 10.4 0.00 0.00 0.00 90 1016.0
20260905174157 78 50 9.6 9.6 0.00 0.00 0.00 96 1016.0
20260905173656 78 50 9.6 9.6 0.00 0.00 0.00 96 1016.0
20260905173154 78 50 9.6 9.6 0.00 0.00 0.00 96 1016.0
20260905172651 78 50 9.6 9.6 0.00 0.00 0.00 96 1016.0
20260905172150 79 50 9.6 9.6 0.00 0.00 0.00 96 1016.0
20260905171648 79 50 9.6 9.6 0.00 0.00 0.00 96 1016.0
20260905171147 79 50 11.3 11.3 0.00 0.00 0.00 95 1016.0
20260905170645 79 50 11.3 11.3 0.00 0.00 0.00 95 1016.0
20260905170144 79 50 11.3 11.3 0.00 0.00 0.00 95 1016.0
20260905165642 79 50 11.3 11.3 0.00 0.00 0.00 95 1016.0
20260905165141 79 50 11.3 11.3 0.00 0.00 0.00 88 1016.0
20260905164639 79 50 11.3 11.3 0.00 0.00 0.00 88 1016.0
20260905164138 79 50 11.3 11.3 0.00 0.00 0.00 88 1016.0
20260905163635 80 50 11.3 11.3 0.00 0.00 0.00 95 1016.0
20260905163133 80 50 11.3 11.3 0.00 0.00 0.00 95 1016.0
20260905162632 81 50 11.3 11.3 0.00 0.00 0.00 93 1016.0
20260905162131 81 50 11.3 11.3 0.00 0.00 0.00 93 1016.0
20260905161628 81 50 11.3 11.3 0.00 0.00 0.00 90 1016.0
20260905161126 81 50 11.3 11.3 0.00 0.00 0.00 90 1016.0
20260905160624 81 50 11.3 11.3 0.00 0.00 0.00 90 1016.0
20260905160123 81 60 10.4 10.4 0.00 0.00 0.00 90 1016.0
20260905155621 81 60 10.4 10.4 0.00 0.00 0.00 90 1016.0
20260905155120 82 60 10.4 10.4 0.00 0.00 0.00 69 1016.0
20260905154618 82 60 10.4 10.4 0.00 0.00 0.00 69 1016.0
20260905154116 82 60 10.4 10.4 0.00 0.00 0.00 86 1016.0
20260905153614 82 60 10.4 10.4 0.00 0.00 0.00 86 1016.0
20260905153111 82 60 11.3 11.3 0.00 0.00 0.00 84 1016.0
20260905152610 82 60 11.3 11.3 0.00 0.00 0.00 84 1016.0
20260905152108 83 60 11.3 11.3 0.00 0.00 0.00 85 1016.0
20260905151606 83 60 11.3 11.3 0.00 0.00 0.00 85 1016.0
20260905151104 84 60 13.9 13.9 0.00 0.00 0.00 72 1016.0
20260905150602 84 60 13.9 13.9 0.00 0.00 0.00 72 1016.0
20260905150100 84 60 13.9 13.9 0.00 0.00 0.00 67 1016.0
20260905145559 85 60 13.9 13.9 0.00 0.00 0.00 34 1016.0
20260905145057 85 60 13.9 13.9 0.00 0.00 0.00 34 1016.0
20260905144556 85 60 13.9 13.9 0.00 0.00 0.00 39 1016.0
20260905144055 85 60 13.9 13.9 0.00 0.00 0.00 49 1016.0
20260905143553 85 40 11.3 11.3 0.00 0.00 0.00 72 1016.0
20260905143050 85 40 11.3 11.3 0.00 0.00 0.00 72 1016.0
20260905142548 85 40 11.3 11.3 0.00 0.00 0.00 72 1016.0
20260905142046 85 40 11.3 11.3 0.00 0.00 0.00 72 1016.0
20260905141544 85 40 11.3 11.3 0.00 0.00 0.00 73 1016.0
20260905141039 85 40 11.3 11.3 0.00 0.00 0.00 73 1016.0
20260905140537 85 50 11.3 11.3 0.00 0.00 0.00 71 1016.0
20260905140036 85 50 11.3 11.3 0.00 0.00 0.00 71 1016.0
20260905135535 85 50 11.3 11.3 0.00 0.00 0.00 71 1016.0
20260905135033 85 50 11.3 11.3 0.00 0.00 0.00 71 1016.0
20260905134532 85 50 11.3 11.3 0.00 0.00 0.00 70 1016.0
20260905134030 85 50 11.3 11.3 0.00 0.00 0.00 70 1016.0
20260905133529 85 50 11.3 11.3 0.00 0.00 0.00 70 1016.0
20260905133028 85 30 11.3 11.3 0.00 0.00 0.00 67 1016.0
20260905132527 85 30 11.3 11.3 0.00 0.00 0.00 67 1016.0
20260905132026 85 30 11.3 11.3 0.00 0.00 0.00 69 1016.0
20260905131524 85 30 11.3 11.3 0.00 0.00 0.00 69 1016.0
20260905131022 85 30 11.3 11.3 0.00 0.00 0.00 69 1016.0
20260905130520 85 60 11.3 11.3 0.00 0.00 0.00 71 1016.0
20260905130017 85 60 11.3 11.3 0.00 0.00 0.00 71 1016.0
20260905125515 85 60 11.3 11.3 0.00 0.00 0.00 71 1016.0
20260905125012 85 60 11.3 11.3 0.00 0.00 0.00 71 1016.0
20260905124510 85 60 11.3 11.3 0.00 0.00 0.00 70 1016.0
20260905124008 85 60 11.3 11.3 0.00 0.00 0.00 70 1016.0
20260905123506 86 50 11.3 11.3 0.00 0.00 0.00 71 1016.0
20260905123006 86 50 11.3 11.3 0.00 0.00 0.00 71 1016.0
20260905122504 86 50 11.3 11.3 0.00 0.00 0.00 71 1017.0
20260905122003 86 50 11.3 11.3 0.00 0.00 0.00 71 1017.0
20260905121501 86 50 11.3 11.3 0.00 0.00 0.00 70 1017.0
20260905120958 86 50 11.3 11.3 0.00 0.00 0.00 70 1017.0
20260905120457 86 50 12.2 12.2 0.00 0.00 0.00 70 1016.0
20260905115956 86 50 12.2 12.2 0.00 0.00 0.00 67 1016.0
20260905115454 86 50 12.2 12.2 0.00 0.00 0.00 67 1016.0
20260905114953 86 50 12.2 12.2 0.00 0.00 0.00 67 1016.0
20260905114452 86 50 12.2 12.2 0.00 0.00 0.00 67 1016.0
20260905113950 86 50 12.2 12.2 0.00 0.00 0.00 68 1016.0
20260905113448 85 230 5.2 5.2 0.00 0.00 0.00 78 1017.0
20260905112946 85 230 5.2 5.2 0.00 0.00 0.00 78 1017.0
20260905112444 85 230 5.2 5.2 0.00 0.00 0.00 78 1017.0
20260905111942 83 230 5.2 5.2 0.00 0.00 0.00 78 1017.0
20260905111439 84 230 5.2 5.2 0.00 0.00 0.00 79 1017.0
20260905110937 84 230 5.2 5.2 0.00 0.00 0.00 79 1017.0
20260905110436 85 150 5.2 5.2 0.00 0.00 0.00 81 1017.0
20260905105934 85 150 5.2 5.2 0.00 0.00 0.00 89 1017.0
20260905105433 85 150 5.2 5.2 0.00 0.00 0.00 89 1017.0
20260905104930 85 150 5.2 5.2 0.00 0.00 0.00 88 1017.0
20260905104428 83 150 5.2 5.2 0.00 0.00 0.00 83 1017.0
20260905103927 83 150 5.2 5.2 0.00 0.00 0.00 83 1017.0
20260905103423 79 150 5.2 5.2 0.00 0.00 0.00 61 1017.0
20260905102922 79 150 5.2 5.2 0.00 0.00 0.00 61 1017.0
20260905102421 79 150 5.2 5.2 0.00 0.00 0.00 61 1017.0
20260905101920 79 150 5.2 5.2 0.00 0.00 0.00 61 1017.0
20260905101417 79 170 7.0 7.0 0.00 0.00 0.00 69 1017.0
20260905100915 79 170 7.0 7.0 0.00 0.00 0.00 69 1017.0
20260905100414 79 170 7.0 7.0 0.00 0.00 0.00 69 1017.0
20260905095911 77 170 7.0 7.0 0.00 0.00 0.00 69 1017.0
20260905095409 77 170 7.0 7.0 0.00 0.00 0.00 69 1017.0
20260905094907 77 170 7.0 7.0 0.00 0.00 0.00 69 1017.0
20260905094403 77 170 7.0 7.0 0.00 0.00 0.00 69 1017.0
20260905093902 76 170 5.2 5.2 0.00 0.00 0.00 73 1017.0
20260905093359 76 170 5.2 5.2 0.00 0.00 0.00 73 1017.0
20260905092857 76 170 5.2 5.2 0.00 0.00 0.00 74 1018.0
20260905092356 76 170 5.2 5.2 0.00 0.00 0.00 74 1018.0
20260905091854 76 170 5.2 5.2 0.00 0.00 0.00 74 1018.0
20260905091352 76 170 5.2 5.2 0.00 0.00 0.00 76 1018.0
20260905090851 76 170 5.2 5.2 0.00 0.00 0.00 76 1018.0
20260905090350 76 140 7.0 7.0 0.00 0.00 0.00 80 1018.0
20260905085848 78 140 7.0 7.0 0.00 0.00 0.00 89 1018.0
20260905085347 78 140 7.0 7.0 0.00 0.00 0.00 89 1018.0
20260905084844 78 140 7.0 7.0 0.00 0.00 0.00 90 1018.0
20260905084342 78 150 7.0 7.0 0.00 0.00 0.00 91 1018.0
20260905083839 78 150 7.0 7.0 0.00 0.00 0.00 91 1018.0